SCP
1 1 1 1 1 1 1 0 0 0 1 1 1 1 1 1 1 1 1 1 1 1 1 1 1 0 0 1 1 1 1 0 1 1 1 1 1 1 1 1 0 0 0
1 1 1 1 1 1 1 1 1 0 0 1 1 1 1 1 1 1 1 1 1 1 1 1 0 0 0 0 0 0 0 0 0 0 0 1 1 1 0 0 0 0 0
1 1 1 1 1 1 1 1 1 0 0 0 0 1 1 1 1 1 1 1 1 1 1 0 0 0 0 0 0 0 0 0 0 0 0 0 1 1 0 0 0 0 0
1 1 1 1 1 1 1 1 1 0 0 0 0 1 1 1 0 1 0 0 1 1 0 0 0 0 0 0 0 0 0 0 0 0 0 0 0 1 0 0 0 0 0
1 1 1 1 1 1 1 1 1 0 0 0 0 1 1 0 0 0 0 0 0 0 0 0 0 0 0 0 0 0 0 1 1 1 1 0 1 1 0 0 0 0 0
1 1 1 1 1 1 1 1 1 0 0 0 0 1 1 0 0 0 0 0 0 0 0 0 0 0 0 0 0 0 0 1 1 1 1 1 1 1 1 0 0 0 0
1 1 1 1 1 1 1 1 1 0 0 0 0 0 1 1 0 0 0 0 0 0 0 0 0 0 0 0 0 0 0 1 1 1 1 1 1 1 1 1 0 0 0
1 1 1 1 1 1 1 1 1 0 0 0 0 0 1 1 1 0 0 1 1 0 0 0 0 0 0 0 0 0 0 1 1 0 0 1 1 2 1 1 1 0 0
1 1 1 1 1 1 1 1 1 0 0 0 0 0 0 1 1 1 1 1 1 1 0 0 0 0 1 1 1 1 0 0 0 0 0 1 2 2 2 1 1 1 1
1 1 1 1 1 1 1 1 1 1 1 1 1 1 1 1 1 1 1 1 1 1 1 1 1 1 1 1 1 1 1 1 1 0 0 1 2 3 3 2 1 1 1
1 1 1 1 1 1 1 1 1 1 1 1 1 1 1 1 1 1 1 1 1 1 1 1 1 1 1 1 1 1 1 1 1 0 1 1 3 4 3 2 1 1 1
1 1 1 1 1 1 1 1 2 2 1 1 1 1 1 0 0 1 1 1 1 1 1 1 1 1 1 1 1 1 1 1 1 1 1 1 3 4 4 3 2 1 1
1 1 1 1 1 1 1 1 1 1 1 1 1 1 1 0 0 1 1 1 1 1 1 1 1 1 1 1 1 1 1 0 0 1 1 1 3 4 4 3 2 2 2
1 1 1 2 2 2 2 1 1 1 1 1 1 1 1 0 0 0 1 1 1 1 1 1 1 1 1 1 1 1 1 1 1 1 1 1 2 3 3 3 2 2 2
1 1 2 2 2 2 2 1 1 0 0 0 1 1 1 0 0 0 0 1 1 1 1 1 1 1 1 1 1 1 1 1 1 1 1 1 2 2 2 2 2 2 2
2 2 2 2 2 2 2 1 1 0 0 0 1 1 1 1 0 1 1 1 1 1 1 1 1 1 1 1 1 1 1 1 1 1 1 1 1 2 2 2 2 2 2
3 3 2 2 3 3 2 1 1 1 1 1 1 1 1 1 1 1 1 1 1 1 1 1 1 1 1 1 1 1 1 1 1 1 1 1 1 2 2 2 2 2 2
3 3 3 2 3 3 2 2 1 1 1 1 1 1 1 1 1 1 1 1 1 1 1 1 1 1 1 1 1 1 1 1 1 1 1 1 1 2 2 3 3 2 2
3 3 3 3 3 3 3 2 1 1 1 1 2 2 2 1 1 1 1 1 1 2 1 1 1 1 1 1 1 1 1 1 1 1 1 1 2 2 3 3 2 2 2
4 4 3 3 3 3 3 2 2 2 2 2 2 2 2 2 1 1 1 1 1 1 1 1 1 1 2 2 2 2 1 1 1 1 1 2 2 2 2 2 2 2 1
4 5 5 4 4 3 3 2 2 2 2 2 2 3 3 2 2 1 1 1 1 1 2 1 1 1 1 1 2 1 1 1 1 1 1 2 2 2 2 2 2 2 2
5 6 7 6 5 4 3 3 2 2 2 3 3 4 4 3 2 2 2 2 1 1 2 2 2 1 1 1 1 1 1 1 1 1 2 2 2 2 2 3 3 2 2
6 7 9 9 7 6 4 4 3 2 2 3 3 4 4 3 3 2 2 2 2 2 2 2 2 2 2 2 2 2 2 1 1 2 2 2 3 3 2 2 3 3 3
6 8 10 12 11 9 6 5 4 3 2 2 3 3 3 3 3 3 3 2 2 2 2 2 3 3 3 3 2 2 2 2 2 2 2 2 3 3 2 2 2 3 3
5 6 10 13 15 13 9 6 5 4 3 2 2 3 3 3 3 3 3 3 3 3 3 3 3 4 4 3 3 3 3 3 3 3 2 3 3 3 2 2 3 3 3
4 5 8 13 16 16 11 7 5 4 3 2 2 2 3 3 3 3 3 3 4 4 4 3 3 4 4 4 3 3 4 4 4 4 3 3 3 3 3 3 3 3 3
Wind_Speed
11 11 12 13 14 14 14 14 14 14 13 13 13 13 13 13 13 13 13 13 13 12 11 11 10 10 10 10 10 9 9 9 9 10 10 10 9 9 8 8 9 9 12
14 13 13 13 14 14 14 13 13 13 13 13 13 13 13 13 13 12 12 12 12 12 11 10 10 9 9 9 9 8 7 7 7 8 9 9 9 8 7 7 9 8 11
15 13 13 14 14 13 13 13 13 13 13 13 12 12 12 12 12 11 11 11 11 11 10 9 9 9 8 8 7 6 5 5 5 6 6 5 7 8 9 10 10 10 10
15 13 13 14 13 13 13 12 12 12 12 12 12 12 12 11 11 11 11 11 11 10 9 8 8 8 7 7 6 4 3 3 2 3 3 4 6 9 8 9 9 9 9
14 14 13 14 14 13 12 12 12 11 11 11 11 11 11 11 11 11 10 10 10 9 8 8 7 7 6 6 5 3 1 1 2 3 1 6 6 9 9 8 8 8 8
15 14 13 14 13 13 12 11 11 11 10 10 10 10 10 10 10 10 9 9 8 8 7 7 6 5 5 4 3 2 2 3 5 3 3 6 7 9 9 8 7 7 7
14 14 13 13 13 12 12 11 11 10 9 9 9 9 9 9 8 8 8 8 7 7 6 5 5 5 4 3 2 2 3 5 6 1 4 6 8 10 9 8 7 7 7
15 14 12 13 13 12 11 11 10 9 9 8 8 8 7 7 7 7 6 6 6 5 5 4 4 4 3 2 2 2 4 7 4 2 5 7 10 10 9 8 7 7 7
13 13 11 11 11 11 11 10 9 9 8 8 7 7 6 6 7 6 6 5 5 4 4 4 3 3 3 3 3 4 6 7 6 1 5 6 10 10 9 8 7 7 7
9 10 11 10 10 10 9 10 10 9 8 7 7 6 6 6 7 7 6 5 4 4 4 4 4 4 4 4 5 6 7 7 6 2 4 7 11 10 9 8 8 7 7
8 8 9 9 9 9 9 10 9 9 8 7 6 6 6 4 5 5 5 6 5 5 5 5 5 5 5 6 8 8 6 5 4 2 4 11 12 11 10 8 8 7 7
9 8 7 7 8 7 7 7 5 6 6 4 3 4 3 2 2 4 6 6 6 6 6 7 7 7 7 5 6 8 4 5 3 3 6 13 12 11 10 9 8 7 7
10 8 7 6 5 5 4 4 3 3 4 3 3 3 2 2 2 3 3 4 4 5 4 4 6 4 4 3 3 4 4 3 1 3 7 12 12 11 10 9 9 8 7
10 8 8 6 5 4 3 3 3 2 2 3 2 1 2 1 0 1 1 1 2 2 2 1 2 2 1 1 2 3 3 2 1 3 6 12 12 11 11 10 9 8 8
9 8 8 6 5 3 2 1 3 2 2 3 3 1 0 1 0 1 0 0 1 1 1 1 1 1 2 3 3 3 2 2 2 4 5 11 12 11 11 11 10 9 9
9 8 7 7 6 4 3 1 1 2 2 2 3 3 1 1 1 0 0 0 1 1 0 1 1 2 2 2 2 2 2 2 2 4 6 8 12 12 11 11 11 10 10
8 8 8 7 7 5 3 3 3 2 3 2 2 3 2 1 1 1 1 1 1 1 1 1 2 2 2 2 2 2 2 2 2 3 5 5 7 10 11 11 11 11 11
9 8 7 7 8 5 3 2 2 2 2 2 2 2 3 3 2 2 1 1 1 1 1 1 1 1 1 1 2 2 2 2 2 3 4 4 5 6 10 13 12 11 11
9 8 7 5 7 6 5 3 2 2 1 1 2 2 2 3 3 3 1 1 1 1 1 2 0 1 1 2 3 3 2 2 3 4 3 4 5 5 6 10 13 12 12
9 8 7 6 6 6 4 3 2 2 2 2 2 2 2 2 3 2 2 2 2 1 1 1 1 2 2 2 4 3 2 3 3 3 3 3 3 5 6 7 8 9 13
10 9 8 7 6 4 3 3 3 3 3 3 3 3 3 3 3 2 2 1 2 1 1 1 1 3 3 2 3 3 3 3 3 3 2 2 3 3 4 6 6 6 7
11 9 8 7 7 6 4 3 3 3 3 3 2 3 3 3 3 3 2 2 2 1 2 2 2 2 3 2 1 2 2 2 2 3 2 2 2 2 3 5 6 6 5
11 11 9 8 8 7 6 4 3 2 2 2 3 2 3 3 2 2 3 3 2 2 2 2 2 2 2 2 1 1 1 1 2 1 2 2 2 2 2 2 4 5 5
13 12 9 9 8 7 6 5 5 4 3 2 2 2 3 3 3 2 2 3 3 2 2 3 2 2 2 2 1 1 2 1 1 2 2 1 3 3 3 3 3 4 4
12 12 10 9 8 7 6 5 4 3 3 2 2 2 2 2 3 3 3 2 2 2 2 2 1 2 2 2 2 1 2 2 3 2 3 3 2 2 3 3 2 3 4
10 10 11 9 8 7 7 6 5 4 3 2 2 2 2 2 2 3 3 2 2 2 2 2 2 3 2 3 3 2 2 2 2 2 3 3 2 2 2 2 2 2 3
Wind_Direction
105 106 103 100 98 97 97 98 97 96 95 93 93 95 96 98 99 99 101 103 105 103 101 99 97 96 91 88 87 87 89 91 94 97 99 98 95 96 99 106 109 102 106
112 109 105 103 100 99 98 99 99 98 98 96 95 96 98 99 100 101 101 101 102 103 101 98 96 96 95 92 91 93 98 103 107 113 114 108 101 98 96 95 94 107 111
115 116 109 102 102 101 99 99 100 100 100 99 97 97 98 98 101 103 104 103 102 102 100 100 98 97 99 98 99 103 110 117 126 136 140 123 110 102 97 98 104 113 114
116 115 108 107 105 103 101 99 99 100 100 99 99 98 98 98 100 104 104 105 105 105 104 102 100 99 102 103 104 109 125 143 166 187 183 140 117 112 109 109 114 117 119
111 109 111 112 108 106 105 103 101 101 102 101 100 99 99 99 99 101 103 106 108 109 110 108 105 104 105 107 108 118 170 225 251 252 156 108 108 122 121 121 122 122 126
115 113 114 114 112 110 109 107 107 105 103 104 103 102 101 102 103 104 105 106 108 111 113 117 117 112 109 110 118 157 241 267 274 234 143 121 118 130 131 132 132 131 133
116 115 119 118 117 115 113 111 110 109 107 107 107 105 104 106 107 108 109 110 111 113 117 122 124 121 118 124 148 217 263 280 264 190 116 114 125 137 138 140 140 138 139
118 118 122 126 123 120 118 117 115 115 114 113 113 113 112 113 114 116 117 118 121 123 125 129 135 141 145 156 188 241 271 286 280 132 125 119 135 141 144 147 147 146 149
121 127 131 135 132 128 126 125 124 123 124 124 124 126 126 130 133 132 129 129 132 136 141 149 160 170 177 194 219 247 267 279 288 185 128 124 143 144 145 148 152 151 153
121 128 136 142 141 144 140 140 137 136 138 140 144 151 150 152 155 154 150 147 151 159 167 177 187 197 204 218 231 246 266 283 268 182 130 138 147 147 149 153 157 158 159
127 132 137 139 146 149 147 145 151 152 156 159 168 178 174 176 166 163 142 154 171 184 193 203 210 214 219 226 233 242 259 258 253 136 122 142 150 151 153 158 162 165 167
143 138 140 142 146 148 142 143 159 160 155 175 158 168 178 187 146 132 147 173 191 201 208 218 226 228 229 221 224 230 240 246 236 143 139 152 155 157 160 165 169 173 176
142 144 146 137 131 128 126 138 139 140 144 160 144 155 157 143 141 143 159 177 200 210 218 207 216 229 225 214 213 209 228 246 226 135 149 158 160 163 166 172 178 181 184
143 148 138 134 119 107 110 132 144 135 144 141 138 164 136 119 153 132 153 160 180 201 209 209 212 223 240 258 237 229 233 229 200 126 159 166 168 170 173 180 185 188 190
144 143 131 123 117 114 111 133 128 124 139 133 137 127 95 120 108 110 114 106 240 205 194 251 258 230 231 242 246 239 238 228 202 159 155 175 175 178 182 186 192 196 198
148 144 138 141 134 134 150 152 151 145 143 137 147 150 181 148 88 350 118 357 309 294 244 265 268 264 260 259 256 247 237 232 207 161 157 181 184 184 189 194 198 202 204
151 149 151 156 149 154 173 184 167 174 164 154 144 157 175 165 191 243 213 230 272 271 239 241 267 264 255 252 245 251 236 228 218 172 169 176 180 193 198 201 204 207 208
156 154 167 168 151 158 178 193 174 177 161 160 152 167 170 174 211 243 233 218 238 256 248 243 265 280 282 276 265 255 231 209 217 201 197 184 178 186 200 207 207 208 210
157 157 165 160 150 163 173 192 207 169 167 184 181 182 176 191 211 223 236 227 233 253 273 290 15 318 284 283 272 248 230 213 215 216 205 194 187 182 182 197 205 208 211
158 158 165 166 158 164 173 183 201 188 193 205 194 181 196 203 220 234 230 213 233 239 273 310 312 287 276 266 274 280 245 221 210 208 213 207 193 184 178 185 193 210 213
163 163 167 173 165 173 182 193 194 195 206 210 191 178 192 217 217 223 269 228 232 225 281 291 285 281 273 263 271 284 262 246 217 205 203 216 212 193 186 177 182 194 201
167 166 170 175 174 184 188 194 201 200 207 204 179 167 196 216 229 213 224 252 240 218 237 254 264 283 292 294 293 310 303 274 275 220 184 206 221 203 208 196 183 190 190
171 173 177 178 179 190 187 191 212 196 216 200 182 184 202 212 228 240 203 229 243 232 221 230 246 255 270 287 291 287 311 309 304 259 218 193 200 200 212 211 191 187 190
175 175 173 174 180 184 188 201 207 204 214 206 192 179 189 206 222 225 227 230 245 248 238 245 210 249 251 272 277 255 250 279 300 314 299 234 208 194 198 228 203 181 179
174 174 172 172 177 181 192 201 212 220 220 208 188 174 198 202 222 229 216 222 231 248 250 274 292 280 274 274 276 278 276 257 243 250 285 305 300 232 203 204 201 183 179
169 170 167 169 177 181 189 197 208 218 228 230 216 197 225 210 217 226 218 213 226 242 249 252 256 259 261 280 291 289 275 268 261 254 274 281 274 270 242 207 193 186 174